Kimball, NE

11:54 PM CST on January 20, 2017 (GMT -0600)
Kimball

Weather History for KIBM - February, 2013

Change the Weather History Date:

Wednesday, February 6, 2013

  Actual Average (KSNY) Record (KSNY)
Temperature  
Mean Temperature 42 °F -  
Max Temperature 53 °F 34 °F 74 °F (2015)
Min Temperature 32 °F 9 °F -24 °F (1989)
Degree Days  
Heating Degree Days 22    
Moisture  
Dew Point 21 °F    
Average Humidity 45    
Maximum Humidity 72    
Minimum Humidity 16    
Precipitation  
Precipitation 0.03 in - - ()
Sea Level Pressure  
Sea Level Pressure 29.84 in    
Wind  
Wind Speed 9 mph (NW)    
Max Wind Speed 18 mph    
Max Gust Speed 28 mph    
Visibility 10 miles    
Events      
Averages and records for this station are not official NWS values.
T = Trace of Precipitation, MM = Missing Value Source: NWS Daily Summary

Daily Weather History Graph

Daily Weather History Graph

Search for Another Location

Airport or City:

Trip Planner

Search our weather history database for the weather conditions in past years. The results will help you decide how hot, cold, wet, or windy it might be!

Date:

Astronomy

Feb. 06, 2013 Rise Set
Actual Time 8:00 AM CST 6:18 PM CST
Civil Twilight 7:31 AM CST 6:46 PM CST
Nautical Twilight 6:58 AM CST 7:19 PM CST
Astronomical Twilight 6:26 AM CST 7:51 PM CST
Moon 4:47 AM CST (2/6) 2:37 PM CST (2/6)
Length of Visible Light 11h 15m
Length of Day
10h 18m
Waning Crescent, 17% of the Moon is Illuminated
Feb 6
Waning Crescent
Feb 10
New
Feb 17
First Quarter
Feb 25
Full
Mar 4
Last Quarter

Hourly Weather History & Observations

Time (CST) Temp. Windchill Dew Point Humidity Pressure Visibility Wind Dir Wind Speed Gust Speed Precip Events Conditions
12:15 AM 37.9 °F 32.1 °F 20.1 °F 49% 29.83 in 10.0 mi SW 8.1 mph - N/A   Mostly Cloudy
12:35 AM 39.4 °F 35.2 °F 19.4 °F 45% 29.82 in 10.0 mi WSW 5.8 mph - N/A   Overcast
1:15 AM 38.3 °F 33.9 °F 20.3 °F 48% 29.82 in 10.0 mi West 5.8 mph - N/A   Overcast
1:35 AM 37.6 °F 34.0 °F 20.8 °F 51% 29.82 in 10.0 mi West 4.6 mph - N/A   Overcast
1:55 AM 36.9 °F 31.4 °F 21.2 °F 53% 29.81 in 10.0 mi West 6.9 mph - N/A   Overcast
2:35 AM 37.8 °F 34.2 °F 21.2 °F 51% 29.80 in 10.0 mi SW 4.6 mph - N/A   Overcast
2:55 AM 37.4 °F 32.1 °F 21.6 °F 53% 29.80 in 10.0 mi SW 6.9 mph - N/A   Overcast
3:15 AM 37.6 °F 32.3 °F 21.6 °F 52% 29.80 in 10.0 mi SW 6.9 mph - N/A   Overcast
3:35 AM 37.2 °F 31.9 °F 21.7 °F 54% 29.79 in 10.0 mi SW 6.9 mph - N/A   Overcast
3:55 AM 37.6 °F 31.6 °F 21.6 °F 52% 29.79 in 10.0 mi WSW 8.1 mph - N/A   Overcast
4:15 AM 37.9 °F 32.1 °F 21.2 °F 51% 29.78 in 10.0 mi SW 8.1 mph - N/A   Overcast
4:35 AM 37.6 °F 31.6 °F 21.7 °F 53% 29.78 in 10.0 mi SW 8.1 mph - N/A   Mostly Cloudy
4:55 AM 37.8 °F 32.5 °F 21.2 °F 51% 29.77 in 10.0 mi WSW 6.9 mph - N/A   Scattered Clouds
5:15 AM 38.5 °F 32.7 °F 21.4 °F 50% 29.78 in 10.0 mi West 8.1 mph - N/A   Mostly Cloudy
5:35 AM 37.2 °F - 22.1 °F 54% 29.78 in 10.0 mi Calm Calm - N/A   Mostly Cloudy
5:55 AM 40.1 °F 36.9 °F 23.0 °F 51% 29.77 in 10.0 mi WNW 4.6 mph - N/A   Overcast
6:15 AM 40.8 °F 36.9 °F 23.4 °F 50% 29.77 in 10.0 mi West 5.8 mph - N/A   Overcast
6:35 AM 41.2 °F 37.3 °F 23.9 °F 50% 29.77 in 10.0 mi NW 5.8 mph - N/A   Overcast
6:55 AM 47.8 °F - 23.9 °F 39% 29.77 in 10.0 mi WNW 15.0 mph - N/A   Overcast
7:15 AM 47.8 °F - 23.9 °F 39% 29.77 in 10.0 mi NW 12.7 mph - N/A   Overcast
7:35 AM 48.2 °F - 23.7 °F 38% 29.77 in 10.0 mi WNW 17.3 mph - N/A   Overcast
7:55 AM 47.3 °F - 23.9 °F 40% 29.78 in 10.0 mi WNW 13.8 mph - N/A   Overcast
8:15 AM 47.3 °F - 23.7 °F 40% 29.79 in 10.0 mi WNW 12.7 mph - N/A   Overcast
8:55 AM 46.8 °F - 23.5 °F 40% 29.80 in 10.0 mi WNW 10.4 mph - N/A   Overcast
9:15 AM 46.6 °F - 23.7 °F 41% 29.80 in 10.0 mi WNW 12.7 mph - N/A   Overcast
9:35 AM 46.4 °F 40.7 °F 23.9 °F 41% 29.80 in 10.0 mi WNW 12.7 mph - N/A   Overcast
9:55 AM 47.5 °F - 23.4 °F 39% 29.80 in 10.0 mi WNW 12.7 mph 18.4 mph N/A   Overcast
10:15 AM 47.1 °F - 23.9 °F 40% 29.81 in 10.0 mi NW 9.2 mph - N/A   Overcast
10:35 AM 46.6 °F - 23.9 °F 41% 29.81 in 10.0 mi WNW 9.2 mph - N/A   Overcast
10:55 AM 47.3 °F - 23.9 °F 40% 29.81 in - NW 9.2 mph - 0.03 in   Overcast
11:15 AM 48.2 °F - 23.5 °F 38% 29.82 in - NW 12.7 mph - N/A   Overcast
11:35 AM 48.0 °F - 23.9 °F 39% 29.82 in 10.0 mi WNW 10.4 mph - N/A   Overcast
11:55 AM 48.7 °F - 22.8 °F 36% 29.82 in 10.0 mi WNW 12.7 mph 18.4 mph N/A   Overcast
12:15 PM 48.9 °F - 23.7 °F 37% 29.82 in 10.0 mi North - - N/A   Overcast
12:35 PM 51.1 °F - 21.4 °F 31% 29.81 in 10.0 mi North - - N/A   Mostly Cloudy
12:55 PM 51.8 °F - 21.0 °F 30% 29.81 in 10.0 mi North - - N/A   Mostly Cloudy
1:15 PM 52.7 °F - 19.9 °F 28% 29.81 in 10.0 mi NW 15.0 mph 19.6 mph N/A   Scattered Clouds
1:35 PM 52.5 °F - 19.4 °F 27% 29.81 in 10.0 mi NW 16.1 mph - N/A   Scattered Clouds
1:55 PM 52.7 °F - 16.3 °F 24% 29.80 in 10.0 mi NW 18.4 mph 27.6 mph N/A   Mostly Cloudy
2:15 PM 53.6 °F - 13.1 °F 20% 29.80 in 10.0 mi NW 17.3 mph 23.0 mph N/A   Scattered Clouds
2:35 PM 53.6 °F - 9.9 °F 17% 29.80 in 10.0 mi NW 17.3 mph 21.9 mph N/A   Scattered Clouds
2:55 PM 53.6 °F - 8.6 °F 16% 29.80 in 10.0 mi NW 15.0 mph 21.9 mph N/A   Scattered Clouds
3:15 PM 52.7 °F - 13.5 °F 21% 29.81 in 10.0 mi NW 15.0 mph 21.9 mph N/A   Mostly Cloudy
3:35 PM 51.8 °F - 14.2 °F 22% 29.81 in 10.0 mi NW 15.0 mph 19.6 mph N/A   Scattered Clouds
3:55 PM 50.5 °F - 15.1 °F 24% 29.82 in 10.0 mi NNW 16.1 mph 23.0 mph N/A   Clear
4:15 PM 47.8 °F - 15.8 °F 28% 29.83 in 10.0 mi North 13.8 mph - N/A   Clear
4:35 PM 47.1 °F - 15.8 °F 29% 29.83 in 10.0 mi NNW 13.8 mph 17.3 mph N/A   Scattered Clouds
4:55 PM 46.6 °F - 16.5 °F 30% 29.84 in 10.0 mi NNW 8.1 mph - N/A   Clear
5:15 PM 46.4 °F 41.5 °F 17.4 °F 31% 29.84 in 10.0 mi NNW 10.4 mph - N/A   Clear
5:35 PM 45.7 °F 39.5 °F 19.2 °F 35% 29.85 in 10.0 mi NNW 13.8 mph 19.6 mph N/A   Clear
5:55 PM 45.0 °F 38.5 °F 20.8 °F 38% 29.86 in 10.0 mi NNW 13.8 mph - N/A   Clear
6:15 PM 43.7 °F 37.7 °F 21.0 °F 41% 29.87 in 10.0 mi NNW 11.5 mph - N/A   Clear
6:35 PM 41.9 °F 35.4 °F 21.6 °F 44% 29.88 in 10.0 mi North 11.5 mph - N/A   Scattered Clouds
6:55 PM 40.3 °F 33.0 °F 22.1 °F 48% 29.89 in 10.0 mi North 12.7 mph - N/A   Scattered Clouds
7:15 PM 38.3 °F 30.9 °F 22.8 °F 54% 29.91 in 10.0 mi North 11.5 mph - N/A   Clear
7:35 PM 36.9 °F 29.1 °F 23.0 °F 57% 29.91 in 10.0 mi NNE 11.5 mph - N/A   Clear
7:55 PM 35.4 °F 27.8 °F 23.2 °F 61% 29.92 in 10.0 mi NNE 10.4 mph - N/A   Clear
8:15 PM 35.1 °F 27.9 °F 23.9 °F 64% 29.94 in 10.0 mi North 9.2 mph - N/A   Clear
8:35 PM 34.7 °F 30.6 °F 23.9 °F 65% 29.95 in 10.0 mi NNW 4.6 mph - N/A   Scattered Clouds
8:55 PM 34.2 °F 28.2 °F 24.8 °F 69% 29.95 in 10.0 mi NNE 6.9 mph - N/A   Scattered Clouds
9:15 PM 33.6 °F 28.4 °F 24.4 °F 69% 29.96 in 10.0 mi NNE 5.8 mph - N/A   Scattered Clouds
9:35 PM 33.1 °F 28.7 °F 24.4 °F 71% 29.98 in 10.0 mi NNW 4.6 mph - N/A   Scattered Clouds
9:55 PM 32.9 °F 27.5 °F 24.6 °F 72% 29.99 in 10.0 mi NNW 5.8 mph - N/A   Scattered Clouds
10:15 PM 33.6 °F 25.0 °F 25.0 °F 71% 30.01 in 10.0 mi WNW 11.5 mph - N/A   Mostly Cloudy
10:35 PM 34.5 °F 27.3 °F 24.8 °F 68% 30.02 in 10.0 mi NW 9.2 mph - N/A   Overcast
10:55 PM 35.8 °F 29.4 °F 25.5 °F 66% 30.03 in 10.0 mi NW 8.1 mph - N/A   Overcast
11:15 PM 35.8 °F 30.9 °F 25.5 °F 66% 30.02 in 10.0 mi North 5.8 mph - N/A   Overcast
11:35 PM 35.2 °F 29.5 °F 25.3 °F 67% 30.03 in 10.0 mi North 6.9 mph - N/A   Overcast
11:55 PM 35.6 °F 28.0 °F 25.7 °F 67% 30.04 in 10.0 mi NNE 10.4 mph - N/A   Overcast